Regional Weather Roundup
Issued by NWS

Home | Current Version | Previous Version | Text Only | Print | Product List | Glossary On
Versions: 1 2 3 4 5 6 7 8 9 10 11 12 13 14 15 16 17 18 19 20 21 22 23 24 25 26 27 28 29 30 31 32 33 34 35 36 37 38 39 40 41 42 43 44 45 46 47 48 49 50
000
ASUS43 KFSD 270210
RWRSD

WEATHER ROUNDUP FOR SOUTH DAKOTA
NATIONAL WEATHER SERVICE SIOUX FALLS SD
900 PM CDT FRI AUG 26 2016

NOTE: "FAIR" INDICATES FEW OR NO CLOUDS BELOW 12,000 FEET WITH NO
SIGNIFICANT WEATHER AND/OR OBSTRUCTIONS TO VISIBILITY.


SDZ001>005-009-010-012>017-270300-
NORTHWEST AND NORTH CENTRAL SOUTH DAKOTA

CITY           SKY/WX    TMP DP  RH WIND       PRES   REMARKS
BUFFALO          N/A     59  49  69 CALM      29.97R
FAITH            N/A     60  59  96 S16       30.00F
MOBRIDGE       CLOUDY    59  52  77 SE8       30.02S
$$

SDZ012>016-024>037-041>051-057-063-072>074-270300-
SOUTHWEST AND SOUTH CENTRAL SOUTH DAKOTA

CITY           SKY/WX    TMP DP  RH WIND       PRES   REMARKS
RAPID CTY ARPT PTCLDY    58  55  90 NW6       30.05R
PIERRE         CLEAR     59  54  83 E8        30.02S
CUSTER         CLOUDY    53  44  71 NE8       30.11R
ELLSWORTH AFB  CLOUDY    60  59  97 NW7       30.04F
PHILIP         PTCLDY    60  57  89 E9        30.02S
PINE RIDGE     CLEAR     63  54  72 SE8       30.01S
WINNER         FAIR      62  58  86 SE8       30.02S
$$

SDZ004>011-016>023-039-040-270300-
NORTHEAST SOUTH DAKOTA

CITY           SKY/WX    TMP DP  RH WIND       PRES   REMARKS
ABERDEEN       CLOUDY    60  57  89 E3        30.05S
WATERTOWN      CLOUDY    66  53  63 SE6       30.06F
BROOKINGS      CLOUDY    65  57  75 SE7       30.06S
SISSETON         N/A     64  61  90 SE3       30.05R
$$

SDZ017-020-022-023-036>040-048>070-270300-
SOUTHEAST SOUTH DAKOTA

CITY           SKY/WX    TMP DP  RH WIND       PRES   REMARKS
SIOUX FALLS    CLOUDY    67  59  75 E10       30.06F
HURON          CLOUDY    64  57  78 E5        30.03S
CHAMBERLAIN    CLOUDY    65  55  70 E7        30.02F
MITCHELL       CLOUDY    69  56  62 SE9       30.04R
YANKTON        PTCLDY    66  57  72 E7        30.04R
$$

ABBREVIATIONS USED IN REMARKS
   TC - TEMPERATURE IN CELSIUS
  WCI - WIND CHILL INDEX
   HX - HEAT INDEX
  VSB - VISIBILITY





USA.gov is the U.S. government's official web portal to all federal, state and local government web resources and services.